TALON08 EPDE-EPDE

Flight info

Callsign TALON08
Flight time N/A
Altitude 7000
Route DCT TDN DCT SOWEX DCT RDO STAY1/0030 DCT NAKER DCT TDN
Aircraft M346/L-S/C

Departure

Time 2026-04-24 10:05
Airport Deblin Military Air Base (EPDE)

Arrival

Time N/A
Airport Deblin Military Air Base (EPDE)
Time Latitude Longitude Altitude Speed Heading
2026-04-24 10:02 51.54516 21.90526 382 ft 0 kts 32°
2026-04-24 10:04 51.54532 21.90542 382 ft 12 kts 32°
2026-04-24 10:05 51.54635 21.90502 381 ft 42 kts 301°
2026-04-24 10:05 51.55081 21.89308 822 ft 186 kts 301°
2026-04-24 10:05 51.55968 21.86932 2407 ft 305 kts 302°
2026-04-24 10:05 51.55747 21.83536 4246 ft 380 kts 217°
2026-04-24 10:06 51.53065 21.82782 6319 ft 419 kts 188°
2026-04-24 10:06 51.46608 21.82842 6607 ft 488 kts 170°
2026-04-24 10:06 51.43478 21.83142 7742 ft 436 kts 200°
2026-04-24 10:07 51.41326 21.79952 6068 ft 422 kts 258°
2026-04-24 10:07 51.40944 21.75581 6713 ft 390 kts 264°
2026-04-24 10:07 51.40569 21.71368 7113 ft 383 kts 267°
2026-04-24 10:07 51.40236 21.67116 7045 ft 388 kts 266°
2026-04-24 10:08 51.39838 21.62833 6894 ft 386 kts 265°
2026-04-24 10:08 51.39416 21.58647 6634 ft 378 kts 265°
2026-04-24 10:08 51.39045 21.54463 6015 ft 376 kts 271°
2026-04-24 10:08 51.39401 21.50382 5364 ft 360 kts 285°
2026-04-24 10:09 51.39970 21.46656 4274 ft 333 kts 285°
2026-04-24 10:09 51.40479 21.43247 3292 ft 302 kts 285°
2026-04-24 10:09 51.40995 21.40144 2536 ft 272 kts 286°
2026-04-24 10:09 51.41445 21.37418 2142 ft 236 kts 279°
2026-04-24 10:10 51.41277 21.35379 2050 ft 141 kts 256°
2026-04-24 10:10 51.41015 21.34031 1877 ft 127 kts 256°
2026-04-24 10:10 51.40744 21.32561 1759 ft 141 kts 260°
2026-04-24 10:10 51.40524 21.31124 1525 ft 134 kts 261°
2026-04-24 10:11 51.40295 21.29663 1353 ft 142 kts 259°
2026-04-24 10:11 51.40035 21.28154 1176 ft 130 kts 257°
2026-04-24 10:11 51.39797 21.26670 1034 ft 137 kts 257°
2026-04-24 10:11 51.39563 21.25258 841 ft 126 kts 257°
2026-04-24 10:12 51.39332 21.23910 723 ft 134 kts 257°
2026-04-24 10:12 51.38951 21.21637 888 ft 296 kts 255°
2026-04-24 10:12 51.38279 21.17974 2208 ft 372 kts 254°
2026-04-24 10:12 51.37492 21.13848 3845 ft 393 kts 254°
2026-04-24 10:13 51.35835 21.10483 4683 ft 415 kts 207°
2026-04-24 10:13 51.33019 21.11075 4459 ft 424 kts 164°
2026-04-24 10:13 51.30169 21.12428 4309 ft 419 kts 165°
2026-04-24 10:13 51.27599 21.14140 4156 ft 393 kts 135°
2026-04-24 10:14 51.26540 21.17911 4100 ft 367 kts 84°
2026-04-24 10:14 51.27079 21.21776 4104 ft 355 kts 76°
2026-04-24 10:14 51.27631 21.25607 4016 ft 353 kts 76°
2026-04-24 10:14 51.28163 21.29426 4026 ft 351 kts 76°
2026-04-24 10:15 51.28660 21.33248 4049 ft 350 kts 76°
2026-04-24 10:15 51.29156 21.37004 4015 ft 350 kts 76°
2026-04-24 10:15 51.29680 21.40797 4001 ft 349 kts 75°
2026-04-24 10:15 51.30242 21.44574 3995 ft 348 kts 73°
2026-04-24 10:16 51.31072 21.48176 3952 ft 341 kts 54°
2026-04-24 10:16 51.32746 21.50681 4011 ft 324 kts 19°
2026-04-24 10:16 51.34910 21.51769 3716 ft 331 kts 15°
2026-04-24 10:16 51.37133 21.52765 3267 ft 326 kts
2026-04-24 10:17 51.37939 21.52786 3120 ft 322 kts 354°
2026-04-24 10:17 51.39066 21.52273 2819 ft 301 kts 309°
2026-04-24 10:17 51.39563 21.49226 2542 ft 284 kts 286°
2026-04-24 10:17 51.40077 21.46176 2467 ft 282 kts 285°
2026-04-24 10:18 51.40562 21.43155 2454 ft 278 kts 284°
2026-04-24 10:18 51.41005 21.40220 2246 ft 253 kts 284°
2026-04-24 10:18 51.41381 21.37662 2012 ft 217 kts 282°
2026-04-24 10:18 51.41312 21.35646 1796 ft 155 kts 255°
2026-04-24 10:19 51.41001 21.34005 1490 ft 153 kts 256°
2026-04-24 10:19 51.40728 21.32369 1302 ft 152 kts 259°
2026-04-24 10:19 51.40464 21.30770 1219 ft 144 kts 256°
2026-04-24 10:19 51.40220 21.29227 1155 ft 148 kts 257°
2026-04-24 10:20 51.39966 21.27674 1026 ft 140 kts 258°
2026-04-24 10:20 51.39714 21.26127 946 ft 147 kts 257°
2026-04-24 10:20 51.39442 21.24575 863 ft 145 kts 258°
2026-04-24 10:20 51.39201 21.23145 696 ft 135 kts 257°
2026-04-24 10:21 51.39034 21.22536 611 ft 10 kts 43°
2026-04-24 10:21 51.39164 21.22712 616 ft 39 kts 36°